STARLINK-1843 (47133 NORAD) Tracking and Keplerian Element Data
This shows tracking and keplerian element data for the satellite.
Feedback or suggestion? Click here.
Element | Value |
Catalog | 47133 |
Name | STARLINK-1843 |
Epoch Orbit | 1619 |
Epoch Day | 62.91667824 |
Epoch Year | 2021 |
RAAN | 234.7901 |
Inclination | 53.0526 |
Eccentricity | 0.0001453 |
Argument of Perigee | 85.7042 |
Mean Anonmoly | 352.4712 |
Mean Motion | 15.06369728 |
Decay Rate | 0.00026326 |
L1 | 1 47133U 20088M 21062.91667824 .00026326 00000-0 17811-2 0 9999 |
L2 | 2 47133 53.0526 234.7901 0001453 85.7042 352.4712 15.06369728 16194 |
Live tracking and technical data element details for STARLINK-1843 (NORAD 47133). STARLINK-1843 can be tracked NOW for your location showing map with azimuth and elevation plus other details from your city location.
Track the satellite on the map from your city or location and see movement details for azimuth, elevation, latitude, longitude, range, height, and movement on the map or in text.
IsCatalogInMostPopularTable: catalog: 47133, numindb: 27
Update: records affected: 1
GetName: 47133 STARLINK-1843
Hit Count: updated at: Fri, 05 Mar 2021 07:31:08 GMT